Weather History for Bonaire, Bonaire

Change the Weather History Date:

Thursday, September 12, 2013

  Actual Average Record
Temperature  
Mean Temperature 84 °F -  
Max Temperature 89 °F 89 °F 93 °F (1996)
Min Temperature 80 °F 82 °F 77 °F (2012)
Cooling Degree Days 20    
Growing Degree Days 34 (Base 50)    
Moisture  
Dew Point 77 °F    
Average Humidity 77    
Maximum Humidity 94    
Minimum Humidity 59    
Precipitation  
Precipitation 0.00 in - - ()
Sea Level Pressure  
Sea Level Pressure 29.81 in    
Wind  
Wind Speed 8 mph ()    
Max Wind Speed 12 mph    
Max Gust Speed -    
Visibility 6.2 miles    
Events      
Averages and records for this station are not official NWS values.
T = Trace of Precipitation, MM = Missing Value Source: Averaged Metar Reports

Daily Weather History Graph

Daily Weather History Graph

Search for Another Location

Airport:

Trip Planner

Search our weather history database for the weather conditions in past years. The results will help you decide how hot, cold, wet, or windy it might be!

Date:

Astronomy

Sep. 12, 2013 Rise Set
Actual Time 6:22 AM AST 6:35 PM AST
Civil Twilight 6:01 AM AST 6:57 PM AST
Nautical Twilight 5:36 AM AST 7:21 PM AST
Astronomical Twilight 5:11 AM AST 7:46 PM AST
Moon 12:41 PM AST (9/12) No Moon Set
Length of Visible Light 12h 55m
Length of Day
12h 13m
Waxing Crescent, 50% of the Moon is Illuminated
Sep 12
Waxing Crescent
Sep 12
First Quarter
Sep 19
Full
Sep 26
Last Quarter
Oct 4
New

Hourly Weather History & Observations

Time (AST) Temp. Heat Index Dew Point Humidity Pressure Visibility Wind Dir Wind Speed Gust Speed Precip Events Conditions
12:55 AM 82.4 °F 92.4 °F 78.8 °F 89% 29.83 in 6.2 mi ENE 8.1 mph - N/A   Scattered Clouds
1:55 AM 82.4 °F 92.4 °F 78.8 °F 89% 29.83 in 6.2 mi ENE 9.2 mph - N/A   Scattered Clouds
2:55 AM 80.6 °F 88.1 °F 78.8 °F 94% 29.80 in - ENE 8.1 mph - N/A   Unknown
3:55 AM 80.6 °F 88.1 °F 78.8 °F 94% 29.80 in - ENE 8.1 mph - N/A   Unknown
4:55 AM 80.6 °F 87.1 °F 77.0 °F 89% 29.80 in - ENE 6.9 mph - N/A   Unknown
5:55 AM 80.6 °F 88.1 °F 78.8 °F 94% 29.83 in - ENE 6.9 mph - N/A   Unknown
6:55 AM 80.6 °F 87.1 °F 77.0 °F 89% 29.83 in - ENE 8.1 mph - N/A   Unknown
7:55 AM 86.0 °F 96.9 °F 77.0 °F 74% 29.86 in 6.2 mi ENE 10.4 mph - N/A   Partly Cloudy
9:00 AM 86.0 °F 96.9 °F 77.0 °F 74% 29.86 in 6.2 mi East 11.5 mph - N/A   Scattered Clouds
10:00 AM 86.0 °F 96.9 °F 77.0 °F 74% 29.86 in 6.2 mi East 10.4 mph - N/A   Scattered Clouds
11:00 AM 87.8 °F 99.7 °F 77.0 °F 70% 29.86 in 6.2 mi East 10.4 mph - N/A   Scattered Clouds
12:00 PM 87.8 °F 97.6 °F 75.2 °F 66% 29.83 in 6.2 mi ESE 10.4 mph - N/A   Scattered Clouds
1:00 PM 87.8 °F 97.6 °F 75.2 °F 66% 29.80 in 6.2 mi ESE 10.4 mph - N/A   Scattered Clouds
2:00 PM 89.6 °F 98.2 °F 73.4 °F 59% 29.80 in 6.2 mi SE 9.2 mph - N/A   Scattered Clouds
3:00 PM 87.8 °F 97.6 °F 75.2 °F 66% 29.77 in 6.2 mi East 10.4 mph - N/A   Partly Cloudy
4:00 PM 87.8 °F 95.6 °F 73.4 °F 62% 29.74 in 6.2 mi ENE 9.2 mph - N/A   Partly Cloudy
5:00 PM 87.8 °F 97.6 °F 75.2 °F 66% 29.74 in 6.2 mi ENE 8.1 mph - N/A   Partly Cloudy
6:00 PM 86.0 °F 95.1 °F 75.2 °F 70% 29.74 in 6.2 mi ENE 10.4 mph - N/A   Partly Cloudy
8:00 PM 84.2 °F 94.1 °F 77.0 °F 79% 29.74 in 6.2 mi NNE 8.1 mph - N/A   Partly Cloudy